Location: MAC-Johnson Site
(33.6264°N, 81.2093°W)
Time: 17:06:08
(UTC-04:00)

Hubble Space Telescope - Visible Passes

Search period start: 19 September 2024 00:00
Search period end: 29 September 2024 00:00
Orbit: 505 x 509 km, 28.5° (Epoch: 18 September)

Date Brightness Start Highest point End Pass type
(mag) Time Alt. Az. Time Alt. Az. Time Alt. Az.
24 Sep 3.3 06:22:21 10° S 06:23:25 11° SSE 06:24:30 10° SE visible
25 Sep 3.2 06:00:50 10° S 06:02:28 12° SSE 06:04:06 10° SE visible
26 Sep 3.0 05:40:24 12° S 05:41:30 14° SSE 05:43:30 10° SE visible
27 Sep 3.0 05:20:49 15° SSE 05:20:49 15° SSE 05:22:48 10° ESE visible
28 Sep 3.4 05:01:10 13° SE 05:01:10 13° SE 05:02:02 10° ESE visible
28 Sep 1.8 06:35:56 10° WSW 06:39:30 33° S 06:43:05 10° ESE visible
